Regional Weather Roundup
Issued by NWS Upton, NY

Current Version | Previous Version | Graphics & Text | Print | Product List | Glossary Off
Versions: 1 2 3 4 5 6 7 8 9 10 11 12 13 14 15 16 17 18 19 20 21 22 23 24 25 26 27 28 29 30 31 32 33 34 35 36 37 38 39 40 41 42 43 44 45 46 47 48 49 50
000 ASUS41 KOKX 201105 RWROKX REGIONAL WEATHER ROUNDUP NATIONAL WEATHER SERVICE NEW YORK NY 700 AM EDT MON OCT 20 2014 NOTE: "FAIR" INDICATES FEW OR NO CLOUDS BELOW 12,000 FEET WITH NO SIGNIFICANT WEATHER AND/OR OBSTRUCTIONS TO VISIBILITY. NYZ071-072-176-178-NJZ106-104-201200- NEW YORK CITY METRO AREA CITY SKY/WX TMP DP RH WIND PRES REMARKS CENTRAL PARK PTCLDY 43 29 57 W3 30.12S LAGUARDIA APRT MOCLDY 45 30 55 W6 30.09F KENNEDY INTL MOCLDY 44 30 57 W7 30.11S NEWARK/LIBERTY MOCLDY 40 30 67 W7 30.11R BRNX BOT. GARD N/A N/A N/A N/A NW3 30.09S TETERBORO PTCLDY 39 29 67 CALM 30.09S $$ NYZ177-179-078>081-201200- LONG ISLAND NEW YORK CITY SKY/WX TMP DP RH WIND PRES REMARKS FARMINGDALE PTCLDY 39 31 72 CALM 30.10S ISLIP MOCLDY 36 30 79 W3 30.08R SHIRLEY NOT AVBL WESTHAMPTON PTCLDY 30 25 81 CALM 30.11R MONTAUK POINT N/A 45 32 60 W5 30.09S $$ NYZ052-065-067-201200- HUDSON VALLEY CITY SKY/WX TMP DP RH WIND PRES REMARKS WHITE PLAINS PTCLDY 38 30 73 W3 30.07S NEWBURGH MOCLDY 36 30 80 W9 30.07S WCI 29 MONTGOMERY PTCLDY 34 29 82 SW5 30.07S WCI 30 POUGHKEEPSIE MOCLDY 34 31 88 CALM 30.07F ALBANY MOCLDY 32 28 85 CALM 30.04F $$ NJZ001-105-106-008-010-013-015-019>022-104-201200- NEW JERSEY CITY SKY/WX TMP DP RH WIND PRES REMARKS NEWARK/LIBERTY MOCLDY 40 30 67 W7 30.11R TETERBORO PTCLDY 39 29 67 CALM 30.09S CALDWELL PTCLDY 36 29 75 CALM 30.11R MORRISTOWN CLEAR 34 32 93 CALM 30.10S SOMERVILLE PTCLDY 31 28 89 CALM 30.10S SUSSEX MOCLDY 33 29 85 CALM 30.08S ANDOVER N/A 33 31 92 CALM 30.09S TRENTON CLEAR 34 31 88 CALM 30.11S MILLVILLE CLEAR 31 30 96 CALM 30.13S ATLANTIC CITY CLEAR 32 29 88 CALM 30.13S WRIGHTSTOWN CLEAR 32 29 87 S3 30.11R TOMS RIVER CLEAR 28 25 86 CALM 30.13R BELMAR CLEAR 37 27 65 SW6 30.11S WCI 33 $$ PAZ047>061-062-071-201200- EASTERN PENNSYLVANIA CITY SKY/WX TMP DP RH WIND PRES REMARKS PHILADELPHIA PTCLDY 41 31 67 S7 30.13S ALLENTOWN PTCLDY 33 29 85 CALM 30.10R SCRANTON PTCLDY 34 28 79 E5 30.05S WCI 30 $$ CTZ002-004>006-009-010-012-RIZ004-006-007-MAZ004-011-015-201200- SOUTHERN NEW ENGLAND IN CT CITY SKY/WX TMP DP RH WIND PRES REMARKS BRADLEY INTL MOCLDY 34 28 79 S3 30.05R HARTFORD CLEAR 35 30 82 S3 30.07S DANBURY PTCLDY 32 28 85 CALM 30.08S WTRBRY/OXFORD CLEAR 34 25 69 CALM 30.07R BRIDGEPORT PTCLDY 39 31 72 W5 30.09R MERIDEN CLEAR 30 27 88 CALM 30.08S NEW HAVEN PTCLDY 43 30 60 CALM 30.09R CHESTER FAIR 34 30 86 SW5 30.07S WCI 30 GROTON CLEAR 34 29 82 CALM 30.08S WILLIMANTIC FAIR 30 27 88 CALM 30.07S IN RI CITY SKY/WX TMP DP RH WIND PRES REMARKS PROVIDENCE PTCLDY 34 27 75 W5 30.07R WCI 30 BLOCK ISLAND PTCLDY 43 27 52 NW7 30.06S WESTERLY CLEAR 31 28 89 CALM 30.09R IN MA CITY SKY/WX TMP DP RH WIND PRES REMARKS BOSTON PTCLDY 40 26 57 W9 30.04R WCI 34 WORCESTER CLEAR 29 25 85 SW5 30.01R WCI 24 WESTFIELD PTCLDY 31 28 89 CALM 30.05R PROVINCETOWN PTCLDY 43 28 56 W16G23 30.03R NANTUCKET PTCLDY 41 28 60 NW6 30.05R $$ ANZ330-335-338-340-345-350-353-355-201200- COASTAL MARINE OBSERVATIONS STATION/POSITION TIME SKY/WX TEMP WIND PRES VSBY WAVE AIR SEA DIR/SP/G HT/PER (UTC) (F) (DEG/KT/KT) (MB) (MI) (FT/S) NY HARB ENTRANCE NOT AVBL 4S FIRE IS 1100 63 N/A 2/11 20S FIRE ISLAND 1100 49 64 310/ 10/ 12 1019.3 2/11 23SW MTP 1100 N/A 3/11 HUDSON CANYON 1100 51 65 310/ 16/ 21 1018.8 5/ 5 EXECUTION ROCKS 1100 46 64 270/ 8/ 10 N/A WESTERN LI SOUND 1100 46 270/ 12/ 16 N/A 1/ 3 CENTRAL LI SOUND 1000 46 64 300/ 10/ 14 N/A 1 EASTERN LI SOUND 1000 45 64 290/ 10/ 14 N/A ROBBINS REEF 1000 43 270/ 7/ 9 1018.1 $$ >>>>>>>>>>>>>>>>>>>>>>>>>>>> KEY <<<<<<<<<<<<<<<<<<<<<<<<<<< > < > SKY/WX - SKY CONDITION/PRESENT WEATHER < > TMP - TEMPERATURE IN FAHRENHEIT < > DP - DEWPOINT IN FAHRENHEIT < > RH - RELATIVE HUMIDITY IN PERCENT < > WIND - DIRECTION AND SPEED IN MPH < > PRES - MEAN SEA LEVEL PRESSURE IN INCHES OF HG < > WCI - WIND CHILL INDEX < > VSB - VISIBILITY IN MILES < > HX - HEAT INDEX < > TC - TEMPERATURE IN CELSIUS < > VRB - VARIABLE WIND DIRECTION < > < >>>>>>>>>>>>>>>>>>>>>>>>>>>> KEY <<<<<<<<<<<<<<<<<<<<<<<<<<<

USA.gov is the U.S. government's official web portal to all federal, state and local government web resources and services.